Time,TemperatureF,DewpointF,PressureIn,WindDirection,WindDirectionDegrees,WindSpeedMPH,WindSpeedGustMPH,Humidity,HourlyPrecipIn,Conditions,Clouds,dailyrainin,SoftwareType,DateUTC
2013-02-25 00:00:00,21.9,16.1,27.30,NW,316,4.0,9.0,78,0.00,,,-99.99,Weather View 32 v60,2013-02-25 05:00:00,
2013-02-25 00:20:00,21.8,16.0,27.30,NNW,344,3.0,8.0,78,0.00,,,-99.99,Weather View 32 v60,2013-02-25 05:20:00,
2013-02-25 00:40:00,21.7,16.2,27.31,NNW,343,2.0,8.0,79,0.00,,,-99.99,Weather View 32 v60,2013-02-25 05:40:00,
2013-02-25 01:00:00,21.1,15.6,27.31,WNW,297,4.0,8.0,79,0.00,,,-99.99,Weather View 32 v60,2013-02-25 06:00:00,
2013-02-25 01:20:00,21.0,16.1,27.31,NNW,339,0.0,6.0,81,0.00,,,-99.99,Weather View 32 v60,2013-02-25 06:20:00,
2013-02-25 01:40:00,21.5,16.3,27.31,NNW,345,0.0,5.0,80,0.00,,,-99.99,Weather View 32 v60,2013-02-25 06:40:00,
2013-02-25 02:00:00,21.6,16.4,27.31,North,0,3.0,6.0,80,0.00,,,-99.99,Weather View 32 v60,2013-02-25 07:00:00,
2013-02-25 02:20:00,21.5,16.3,27.30,NW,320,2.0,6.0,80,0.00,,,-99.99,Weather View 32 v60,2013-02-25 07:20:00,
2013-02-25 02:40:00,21.6,16.4,27.30,North,0,0.0,6.0,80,0.00,,,-99.99,Weather View 32 v60,2013-02-25 07:40:00,
2013-02-25 03:00:00,21.7,16.5,27.30,NNW,341,0.0,5.0,80,0.00,,,-99.99,Weather View 32 v60,2013-02-25 08:00:00,
2013-02-25 03:20:00,21.5,16.0,27.30,NNW,348,1.0,5.0,79,0.00,,,-99.99,Weather View 32 v60,2013-02-25 08:20:00,
2013-02-25 03:40:00,20.8,15.9,27.30,North,0,2.0,4.0,81,0.00,,,-99.99,Weather View 32 v60,2013-02-25 08:40:00,
2013-02-25 04:00:00,21.3,16.4,27.30,North,0,2.0,4.0,81,0.00,,,-99.99,Weather View 32 v60,2013-02-25 09:00:00,
2013-02-25 04:20:00,21.4,16.5,27.31,North,0,0.0,4.0,81,0.00,,,-99.99,Weather View 32 v60,2013-02-25 09:20:00,
2013-02-25 04:40:00,21.5,16.9,27.33,North,0,0.0,3.0,82,0.00,,,-99.99,Weather View 32 v60,2013-02-25 09:40:00,
2013-02-25 05:00:00,21.4,16.5,27.33,North,0,0.0,2.0,81,0.00,,,-99.99,Weather View 32 v60,2013-02-25 10:00:00,
2013-02-25 05:20:00,21.6,16.7,27.34,North,0,0.0,1.0,81,0.00,,,-99.99,Weather View 32 v60,2013-02-25 10:20:00,
2013-02-25 05:40:00,22.0,17.1,27.33,North,0,0.0,1.0,81,0.00,,,-99.99,Weather View 32 v60,2013-02-25 10:40:00,
2013-02-25 06:00:00,21.6,16.7,27.34,North,0,0.0,1.0,81,0.00,,,-99.99,Weather View 32 v60,2013-02-25 11:00:00,
2013-02-25 06:20:00,20.2,15.6,27.34,North,0,0.0,1.0,82,0.00,,,-99.99,Weather View 32 v60,2013-02-25 11:20:00,
2013-02-25 06:40:00,19.5,15.2,27.34,North,0,1.0,2.0,83,0.00,,,-99.99,Weather View 32 v60,2013-02-25 11:40:00,
2013-02-25 07:00:00,21.0,17.2,27.36,SW,232,0.0,7.0,85,0.00,,,-99.99,Weather View 32 v60,2013-02-25 12:00:00,
2013-02-25 07:20:00,24.2,18.6,27.36,NNE,26,0.0,7.0,79,0.00,,,-99.99,Weather View 32 v60,2013-02-25 12:20:00,
2013-02-25 07:40:00,27.8,20.3,27.35,NNE,33,2.0,7.0,73,0.00,,,-99.99,Weather View 32 v60,2013-02-25 12:40:00,
2013-02-25 08:00:00,30.3,19.9,27.36,NE,52,5.0,7.0,65,0.00,,,-99.99,Weather View 32 v60,2013-02-25 13:00:00,
2013-02-25 08:20:00,26.6,16.4,27.37,ENE,65,5.0,11.0,65,0.00,,,-99.99,Weather View 32 v60,2013-02-25 13:20:00,
2013-02-25 08:40:00,31.4,19.1,27.37,NE,55,1.0,11.0,60,0.00,,,-99.99,Weather View 32 v60,2013-02-25 13:40:00,
2013-02-25 09:00:00,32.3,18.3,27.36,NE,55,5.0,11.0,56,0.00,,,-99.99,Weather View 32 v60,2013-02-25 14:00:00,
2013-02-25 09:20:00,32.2,19.1,27.37,ENE,70,4.0,9.0,58,0.00,,,-99.99,Weather View 32 v60,2013-02-25 14:20:00,
2013-02-25 09:40:00,33.5,21.1,27.36,SSW,192,1.0,9.0,60,0.00,,,-99.99,Weather View 32 v60,2013-02-25 14:40:00,
2013-02-25 10:00:00,35.7,21.1,27.37,NE,34,3.0,8.0,55,0.00,,,-99.99,Weather View 32 v60,2013-02-25 15:00:00,
2013-02-25 10:20:00,36.8,21.3,27.37,SW,219,1.0,8.0,53,0.00,,,-99.99,Weather View 32 v60,2013-02-25 15:20:00,
2013-02-25 10:40:00,36.3,22.5,27.36,SSW,201,0.0,7.0,57,0.00,,,-99.99,Weather View 32 v60,2013-02-25 15:40:00,
2013-02-25 11:00:00,37.3,20.8,27.35,NE,54,2.0,7.0,51,0.00,,,-99.99,Weather View 32 v60,2013-02-25 16:00:00,
2013-02-25 11:20:00,38.4,22.7,27.36,NE,54,4.0,7.0,53,0.00,,,-99.99,Weather View 32 v60,2013-02-25 16:20:00,
2013-02-25 11:40:00,39.5,22.4,27.35,ENE,60,8.0,8.0,50,0.00,,,-99.99,Weather View 32 v60,2013-02-25 16:40:00,
2013-02-25 12:00:00,38.7,22.1,27.33,NNE,28,4.0,9.0,51,0.00,,,-99.99,Weather View 32 v60,2013-02-25 17:00:00,
2013-02-25 12:20:00,40.6,22.9,27.33,NE,44,2.0,10.0,49,0.00,,,-99.99,Weather View 32 v60,2013-02-25 17:20:00,
2013-02-25 12:40:00,43.3,23.4,27.31,East,85,3.0,10.0,45,0.00,,,-99.99,Weather View 32 v60,2013-02-25 17:40:00,
2013-02-25 13:00:00,44.2,20.2,27.32,South,170,5.0,10.0,38,0.00,,,-99.99,Weather View 32 v60,2013-02-25 18:00:00,
2013-02-25 13:20:00,43.8,19.2,27.31,South,180,1.0,9.0,37,0.00,,,-99.99,Weather View 32 v60,2013-02-25 18:20:00,
2013-02-25 13:40:00,42.9,21.9,27.31,SSW,195,6.0,9.0,43,0.00,,,-99.99,Weather View 32 v60,2013-02-25 18:40:00,
2013-02-25 14:00:00,42.8,19.5,27.31,South,169,5.0,10.0,39,0.00,,,-99.99,Weather View 32 v60,2013-02-25 19:00:00,
2013-02-25 14:20:00,43.8,21.0,27.31,ESE,116,2.0,10.0,40,0.00,,,-99.99,Weather View 32 v60,2013-02-25 19:20:00,
2013-02-25 14:40:00,43.5,21.9,27.31,South,170,7.0,10.0,42,0.00,,,-99.99,Weather View 32 v60,2013-02-25 19:40:00,
2013-02-25 15:00:00,44.0,16.7,27.30,SSW,196,0.0,9.0,33,0.00,,,-99.99,Weather View 32 v60,2013-02-25 20:00:00,
2013-02-25 15:20:00,44.2,17.6,27.31,South,179,6.0,10.0,34,0.00,,,-99.99,Weather View 32 v60,2013-02-25 20:20:00,
2013-02-25 15:40:00,44.4,17.1,27.31,SSW,208,0.0,10.0,33,0.00,,,-99.99,Weather View 32 v60,2013-02-25 20:40:00,
2013-02-25 16:00:00,40.2,17.2,27.31,SSW,198,4.0,10.0,39,0.00,,,-99.99,Weather View 32 v60,2013-02-25 21:00:00,
2013-02-25 16:20:00,38.9,16.0,27.31,South,170,8.0,12.0,39,0.00,,,-99.99,Weather View 32 v60,2013-02-25 21:20:00,
2013-02-25 16:40:00,38.1,15.9,27.31,SW,233,1.0,12.0,40,0.00,,,-99.99,Weather View 32 v60,2013-02-25 21:40:00,
2013-02-25 17:00:00,34.3,-33.8,27.31,SSW,201,4.0,12.0,4,0.00,,,-99.99,Weather View 32 v60,2013-02-25 22:00:00,
2013-02-25 17:20:00,32.6,16.0,27.31,SW,222,2.0,12.0,50,0.00,,,-99.99,Weather View 32 v60,2013-02-25 22:20:00,
2013-02-25 17:40:00,31.2,15.6,27.32,South,170,3.0,11.0,52,0.00,,,-99.99,Weather View 32 v60,2013-02-25 22:40:00,
2013-02-25 18:00:00,30.5,15.4,27.33,South,184,2.0,11.0,53,0.00,,,-99.99,Weather View 32 v60,2013-02-25 23:00:00,
2013-02-25 18:20:00,30.4,16.2,27.32,SSW,208,1.0,6.0,55,0.00,,,-99.99,Weather View 32 v60,2013-02-25 23:20:00,
2013-02-25 18:40:00,30.1,16.3,27.31,SW,234,2.0,6.0,56,0.00,,,-99.99,Weather View 32 v60,2013-02-25 23:40:00,
2013-02-25 19:00:00,30.1,15.9,27.31,WSW,239,3.0,7.0,55,0.00,,,-99.99,Weather View 32 v60,2013-02-26 00:00:00,
2013-02-25 19:20:00,30.2,16.0,27.31,South,182,7.0,16.0,55,0.00,,,-99.99,Weather View 32 v60,2013-02-26 00:20:00,
2013-02-25 19:40:00,30.3,16.1,27.31,South,191,5.0,16.0,55,0.00,,,-99.99,Weather View 32 v60,2013-02-26 00:40:00,
2013-02-25 20:00:00,29.9,16.1,27.31,SSE,166,7.0,16.0,56,0.00,,,-99.99,Weather View 32 v60,2013-02-26 01:00:00,
2013-02-25 20:20:00,29.7,15.9,27.31,South,190,5.0,16.0,56,0.00,,,-99.99,Weather View 32 v60,2013-02-26 01:20:00,
2013-02-25 20:40:00,29.2,15.9,27.30,SW,215,4.0,15.0,57,0.00,,,-99.99,Weather View 32 v60,2013-02-26 01:40:00,
2013-02-25 21:00:00,28.6,15.7,27.29,South,190,7.0,13.0,58,0.00,,,-99.99,Weather View 32 v60,2013-02-26 02:00:00,
2013-02-25 21:20:00,28.6,15.7,27.28,WSW,247,3.0,13.0,58,0.00,,,-99.99,Weather View 32 v60,2013-02-26 02:20:00,
2013-02-25 21:40:00,28.4,15.9,27.29,SSE,168,12.0,15.0,59,0.00,,,-99.99,Weather View 32 v60,2013-02-26 02:40:00,
2013-02-25 22:00:00,29.0,16.1,27.29,South,169,13.0,18.0,58,0.00,,,-99.99,Weather View 32 v60,2013-02-26 03:00:00,
2013-02-25 22:20:00,29.1,15.8,27.29,South,178,8.0,20.0,57,0.00,,,-99.99,Weather View 32 v60,2013-02-26 03:20:00,
2013-02-25 22:40:00,29.2,15.4,27.28,South,169,10.0,21.0,56,0.00,,,-99.99,Weather View 32 v60,2013-02-26 03:40:00,
2013-02-25 23:00:00,29.1,15.8,27.28,South,180,10.0,21.0,57,0.00,,,-99.99,Weather View 32 v60,2013-02-26 04:00:00,
2013-02-25 23:20:00,28.9,16.0,27.29,South,169,13.0,23.0,58,0.00,,,-99.99,Weather View 32 v60,2013-02-26 04:20:00,
2013-02-25 23:40:00,28.5,16.0,27.28,South,177,12.0,23.0,59,0.00,,,-99.99,Weather View 32 v60,2013-02-26 04:40:00,